CW2046 Weather Reports


time (UTC)temp
C
wind
direction
speed
KPH
gust
KPH
rain 1hr
cm
rain 24hr
cm
rain mn
cm
humidity
%
barometer
mb
20260502183400 14 139 0.0 3.2 0.00 0.00 0.00 68 1012.7
20260502183300 14 143 0.0 1.6 0.00 0.00 0.00 68 1012.6
20260502183201 14 79 0.0 1.6 0.00 0.00 0.00 68 1012.7
20260502183101 14 79 0.0 1.6 0.00 0.00 0.00 69 1012.7
20260502183001 14 338 0.0 1.6 0.00 0.00 0.00 71 1012.7
20260502182901 14 337 0.0 1.6 0.00 0.00 0.00 71 1012.6
20260502182801 14 338 0.0 1.6 0.00 0.00 0.00 71 1012.7
20260502182701 14 338 0.0 1.6 0.00 0.00 0.00 70 1012.7
20260502182601 13 329 0.0 1.6 0.00 0.00 0.00 70 1012.7
20260502182500 13 329 0.0 1.6 0.00 0.00 0.00 70 1012.6
20260502182400 13 329 0.0 1.6 0.00 0.00 0.00 69 1012.6
20260502182100 14 329 0.0 1.6 0.00 0.00 0.00 69 1012.7
20260502182000 14 329 0.0 1.6 0.00 0.00 0.00 68 1012.7
20260502181900 14 327 0.0 1.6 0.00 0.00 0.00 68 1012.8
20260502181800 14 328 0.0 1.6 0.00 0.00 0.00 68 1012.9
20260502181701 14 327 0.0 1.6 0.00 0.00 0.00 68 1012.8
20260502181601 14 327 0.0 1.6 0.00 0.00 0.00 68 1012.9
20260502181502 14 147 0.0 1.6 0.00 0.00 0.00 68 1012.9
20260502181405 14 146 0.0 1.6 0.00 0.00 0.00 67 1012.9
20260502181304 14 143 0.0 1.6 0.00 0.00 0.00 69 1012.8
20260502181200 14 134 0.0 1.6 0.00 0.00 0.00 68 1012.8
20260502181003 14 152 0.0 3.2 0.00 0.00 0.00 68 1012.8
20260502180905 14 152 0.0 3.2 0.00 0.00 0.00 68 1012.7
20260502180802 14 152 0.0 3.2 0.00 0.00 0.00 69 1012.8
20260502180704 14 152 0.0 3.2 0.00 0.00 0.00 68 1012.7
20260502180603 14 153 0.0 3.2 0.00 0.00 0.00 69 1012.8
20260502180502 14 153 0.0 3.2 0.00 0.00 0.00 69 1012.7
20260502180359 14 122 0.0 3.2 0.00 0.00 0.00 69 1012.8
20260502180302 14 121 0.0 3.2 0.00 0.00 0.00 69 1012.8
20260502170502 13 325 0.0 1.6 0.00 0.00 0.00 75 1013.3
20260502170401 13 150 0.0 1.6 0.00 0.00 0.00 74 1013.3
20260502170302 13 150 0.0 1.6 0.00 0.00 0.00 74 1013.3
20260502170201 13 152 0.0 1.6 0.00 0.00 0.00 75 1013.2
20260502164200 13 157 0.0 1.6 0.00 0.00 0.00 75 1013.2
20260502164102 13 157 0.0 1.6 0.00 0.00 0.00 76 1013.3
20260502163901 13 156 0.0 1.6 0.00 0.00 0.00 77 1013.4
20260502163801 13 157 0.0 1.6 0.00 0.00 0.00 76 1013.4
20260502163700 13 157 0.0 1.6 0.00 0.00 0.00 76 1013.3
20260502163601 13 347 0.0 1.6 0.00 0.00 0.00 76 1013.5
20260502163500 13 359 0.0 0.0 0.00 0.00 0.00 76 1013.5
20260502163401 13 360 0.0 0.0 0.00 0.00 0.00 77 1013.5
20260502163302 13 359 0.0 0.0 0.00 0.00 0.00 76 1013.6
20260502163200 13 343 0.0 0.0 0.00 0.00 0.00 76 1013.6
20260502163105 13 343 0.0 0.0 0.00 0.00 0.00 76 1013.7
20260502163100 13 343 0.0 0.0 0.00 0.00 0.00 76 1013.7
20260502163000 13 343 0.0 0.0 0.00 0.00 0.00 76 1013.7
20260502162900 13 336 0.0 0.0 0.00 0.00 0.00 76 1013.8
20260502162801 13 336 0.0 0.0 0.00 0.00 0.00 76 1013.7
20260502162701 13 335 0.0 0.0 0.00 0.00 0.00 76 1013.8
20260502162600 13 335 0.0 0.0 0.00 0.00 0.00 77 1014.0
20260502162401 13 334 0.0 0.0 0.00 0.00 0.00 77 1014.1
20260502162304 13 335 0.0 0.0 0.00 0.00 0.00 76 1014.1
20260502162200 13 335 0.0 0.0 0.00 0.00 0.00 77 1014.1
20260502162059 13 335 0.0 0.0 0.00 0.00 0.00 76 1014.2
20260502161900 13 335 0.0 0.0 0.00 0.00 0.00 77 1014.2
20260502161801 13 335 0.0 0.0 0.00 0.00 0.00 77 1014.2
20260502161700 13 335 0.0 0.0 0.00 0.00 0.00 77 1014.3
20260502161601 13 335 0.0 0.0 0.00 0.00 0.00 76 1014.3
20260502161500 13 335 0.0 0.0 0.00 0.00 0.00 76 1014.3
20260502161301 12 334 0.0 0.0 0.00 0.00 0.00 76 1014.3
20260502161200 12 335 0.0 0.0 0.00 0.00 0.00 76 1014.3
20260502161100 12 334 0.0 0.0 0.00 0.00 0.00 76 1014.4
20260502161000 12 335 0.0 0.0 0.00 0.00 0.00 76 1014.4
20260502160602 12 334 0.0 1.6 0.00 0.00 0.00 75 1014.4
20260502160501 13 335 0.0 1.6 0.00 0.00 0.00 75 1014.4
20260502160401 13 335 0.0 1.6 0.00 0.00 0.00 76 1014.4
20260502160301 13 334 0.0 1.6 0.00 0.00 0.00 76 1014.4
20260502160201 13 335 0.0 1.6 0.00 0.00 0.00 76 1014.4
20260502152201 13 335 0.0 1.6 0.00 0.00 0.00 77 1013.7
20260502152100 13 335 0.0 1.6 0.00 0.00 0.00 77 1013.7
20260502152001 13 334 0.0 1.6 0.00 0.00 0.00 76 1013.8
20260502151901 13 333 0.0 1.6 0.00 0.00 0.00 76 1013.8
20260502151701 13 334 0.0 1.6 0.00 0.00 0.00 76 1013.9
20260502151601 13 335 0.0 0.0 0.00 0.00 0.00 76 1013.8
20260502151501 13 334 0.0 0.0 0.00 0.00 0.00 76 1013.8
20260502151301 13 335 0.0 0.0 0.00 0.00 0.00 76 1014.0
20260502151200 13 333 0.0 0.0 0.00 0.00 0.00 76 1014.0
20260502151100 13 333 0.0 0.0 0.00 0.00 0.00 77 1013.9
20260502151001 13 335 0.0 0.0 0.00 0.00 0.00 77 1013.8
20260502150900 13 334 0.0 0.0 0.00 0.00 0.00 76 1013.9
20260502150804 13 334 0.0 0.0 0.00 0.00 0.00 76 1013.9
20260502150300 13 335 0.0 0.0 0.00 0.00 0.00 77 1014.1
20260502150201 13 334 0.0 0.0 0.00 0.00 0.00 77 1014.1
20260502150114 13 335 0.0 0.0 0.00 0.00 0.00 77 1014.0
20260502130601 11 333 0.0 1.6 0.00 0.00 0.00 77 1013.4
20260502130501 11 335 0.0 1.6 0.00 0.00 0.00 77 1013.4
20260502130400 11 335 0.0 1.6 0.00 0.00 0.00 77 1013.5
20260502130301 11 335 0.0 1.6 0.00 0.00 0.00 77 1013.6
20260502130201 11 334 0.0 1.6 0.00 0.00 0.00 77 1013.6
20260502123800 11 334 0.0 1.6 0.00 0.00 0.00 78 1013.5
20260502123702 11 334 0.0 1.6 0.00 0.00 0.00 78 1013.6
20260502123600 11 335 0.0 1.6 0.00 0.00 0.00 79 1013.6
20260502123501 11 333 0.0 1.6 0.00 0.00 0.00 79 1013.5
20260502123402 11 333 0.0 1.6 0.00 0.00 0.00 79 1013.4
20260502123300 11 333 0.0 1.6 0.00 0.00 0.00 78 1013.5
20260502123201 11 334 0.0 1.6 0.00 0.00 0.00 79 1013.4
20260502123111 11 333 0.0 1.6 0.00 0.00 0.00 78 1013.5
20260502123102 11 333 0.0 1.6 0.00 0.00 0.00 78 1013.5
20260502123000 11 333 0.0 1.6 0.00 0.00 0.00 78 1013.5
20260502122902 11 333 0.0 1.6 0.00 0.00 0.00 79 1013.5
20260502122800 11 333 0.0 1.6 0.00 0.00 0.00 79 1013.5
20260502122701 11 335 0.0 1.6 0.00 0.00 0.00 79 1013.5
20260502122602 11 336 0.0 1.6 0.00 0.00 0.00 79 1013.5
20260502122459 11 335 0.0 1.6 0.00 0.00 0.00 79 1013.5
20260502122401 11 335 0.0 1.6 0.00 0.00 0.00 79 1013.4
20260502122300 11 335 0.0 1.6 0.00 0.00 0.00 79 1013.4
20260502122200 11 333 0.0 1.6 0.00 0.00 0.00 79 1013.5
20260502122000 11 335 0.0 1.6 0.00 0.00 0.00 80 1013.4
20260502121901 11 333 0.0 1.6 0.00 0.00 0.00 80 1013.3
20260502121800 11 333 0.0 1.6 0.00 0.00 0.00 80 1013.3
20260502121701 11 333 0.0 1.6 0.00 0.00 0.00 80 1013.2
20260502121603 11 333 0.0 1.6 0.00 0.00 0.00 80 1013.1
20260502121600 11 333 0.0 1.6 0.00 0.00 0.00 80 1013.2
20260502121500 11 333 0.0 1.6 0.00 0.00 0.00 80 1013.2
20260502121402 11 334 0.0 1.6 0.00 0.00 0.00 80 1013.2
20260502121203 11 334 0.0 1.6 0.00 0.00 0.00 80 1013.1
20260502121100 11 334 0.0 1.6 0.00 0.00 0.00 80 1013.2
20260502121000 11 335 0.0 1.6 0.00 0.00 0.00 80 1013.1
20260502120901 11 333 0.0 1.6 0.00 0.00 0.00 80 1013.1
20260502120801 11 333 0.0 1.6 0.00 0.00 0.00 81 1013.2
20260502120701 11 333 0.0 1.6 0.00 0.00 0.00 81 1013.1
20260502120601 11 334 0.0 1.6 0.00 0.00 0.00 81 1013.1
20260502120500 11 334 0.0 1.6 0.00 0.00 0.00 81 1013.1
20260502120400 11 335 0.0 1.6 0.00 0.00 0.00 81 1013.1
20260502120302 11 334 0.0 1.6 0.00 0.00 0.00 81 1013.2
20260502120200 11 334 0.0 1.6 0.00 0.00 0.00 81 1013.0
20260502115900 11 336 0.0 1.6 0.00 0.00 0.00 82 1013.1
20260502115801 11 336 0.0 1.6 0.00 0.00 0.00 81 1013.2
20260502115701 11 336 0.0 1.6 0.00 0.00 0.00 81 1013.1
20260502115601 11 335 0.0 1.6 0.00 0.00 0.00 81 1013.2
20260502115501 11 335 0.0 1.6 0.00 0.00 0.00 82 1013.2
20260502115400 11 336 0.0 1.6 0.00 0.00 0.00 82 1013.2
20260502115201 11 336 0.0 1.6 0.00 0.00 0.00 82 1013.2
20260502115000 11 335 0.0 1.6 0.00 0.00 0.00 82 1013.2
20260502114900 11 335 0.0 1.6 0.00 0.00 0.00 82 1013.2
20260502114701 11 335 0.0 1.6 0.00 0.00 0.00 82 1013.2
20260502114603 11 336 0.0 1.6 0.00 0.00 0.00 82 1013.2
20260502114600 11 336 0.0 1.6 0.00 0.00 0.00 82 1013.3
20260502114501 11 333 0.0 0.0 0.00 0.00 0.00 82 1013.3
20260502114301 11 334 0.0 0.0 0.00 0.00 0.00 82 1013.3
20260502114200 11 334 0.0 1.6 0.00 0.00 0.00 82 1013.3
20260502114101 11 334 0.0 1.6 0.00 0.00 0.00 82 1013.3
20260502114000 11 334 0.0 1.6 0.00 0.00 0.00 82 1013.2
20260502113900 11 334 0.0 1.6 0.00 0.00 0.00 82 1013.1
20260502113801 11 334 0.0 1.6 0.00 0.00 0.00 82 1013.2
20260502113701 11 334 0.0 1.6 0.00 0.00 0.00 82 1013.3
20260502113601 11 334 0.0 1.6 0.00 0.00 0.00 82 1013.2
20260502113500 11 335 0.0 1.6 0.00 0.00 0.00 82 1013.2
20260502113200 11 287 0.0 0.0 0.00 0.00 0.00 82 1013.2
20260502113100 11 285 0.0 0.0 0.00 0.00 0.00 82 1013.2
20260502113000 11 285 0.0 0.0 0.00 0.00 0.00 82 1013.2
20260502112900 11 285 0.0 0.0 0.00 0.00 0.00 82 1013.1
20260502112800 11 285 0.0 0.0 0.00 0.00 0.00 83 1013.2
20260502112701 11 285 0.0 0.0 0.00 0.00 0.00 83 1013.1
20260502112600 11 285 0.0 0.0 0.00 0.00 0.00 83 1013.0
20260502112500 11 285 0.0 0.0 0.00 0.00 0.00 83 1013.0
20260502112300 11 285 0.0 1.6 0.00 0.00 0.00 83 1013.1
20260502112200 11 285 0.0 1.6 0.00 0.00 0.00 83 1012.9
20260502112100 11 285 0.0 1.6 0.00 0.00 0.00 83 1013.0
20260502112001 11 285 0.0 1.6 0.00 0.00 0.00 83 1013.0
20260502111900 11 285 0.0 1.6 0.00 0.00 0.00 83 1013.0
20260502111801 11 285 0.0 1.6 0.00 0.00 0.00 83 1013.0
20260502111701 11 285 0.0 1.6 0.00 0.00 0.00 83 1013.1
20260502111602 11 285 0.0 1.6 0.00 0.00 0.00 84 1013.1
20260502111600 11 285 0.0 1.6 0.00 0.00 0.00 84 1013.1
20260502111500 11 285 0.0 1.6 0.00 0.00 0.00 84 1013.1
20260502111400 11 284 0.0 0.0 0.00 0.00 0.00 84 1013.1
20260502111102 11 284 0.0 0.0 0.00 0.00 0.00 84 1013.1
20260502111000 11 284 0.0 0.0 0.00 0.00 0.00 84 1013.3
20260502110900 11 284 0.0 0.0 0.00 0.00 0.00 84 1013.1
20260502110802 11 285 0.0 0.0 0.00 0.00 0.00 84 1013.1
20260502110701 11 284 0.0 0.0 0.00 0.00 0.00 84 1013.3
20260502110601 11 283 0.0 0.0 0.00 0.00 0.00 84 1013.3
20260502110500 11 283 0.0 0.0 0.00 0.00 0.00 84 1013.4
20260502110401 11 283 0.0 0.0 0.00 0.00 0.00 84 1013.3
20260502110200 11 283 0.0 0.0 0.00 0.00 0.00 84 1013.2
20260502110100 11 282 0.0 0.0 0.00 0.00 0.00 85 1013.3
20260502110001 11 283 0.0 0.0 0.00 0.00 0.00 85 1013.2
20260502105901 11 282 0.0 0.0 0.00 0.00 0.00 85 1013.3
20260502105801 11 283 0.0 0.0 0.00 0.00 0.00 85 1013.3
20260502105700 11 282 0.0 1.6 0.00 0.00 0.00 85 1013.2
20260502105500 11 283 0.0 1.6 0.00 0.00 0.00 85 1013.2
20260502105305 11 283 0.0 1.6 0.00 0.00 0.00 85 1013.2
20260502105200 11 283 0.0 1.6 0.00 0.00 0.00 85 1013.2
20260502105101 11 282 0.0 1.6 0.00 0.00 0.00 85 1013.2
20260502104800 11 283 0.0 1.6 0.00 0.00 0.00 85 1013.3
20260502104701 11 283 0.0 1.6 0.00 0.00 0.00 85 1013.3
20260502104600 11 281 0.0 0.0 0.00 0.00 0.00 85 1013.4
20260502104505 11 281 0.0 0.0 0.00 0.00 0.00 85 1013.2
20260502104501 11 281 0.0 0.0 0.00 0.00 0.00 85 1013.4
20260502104301 11 281 0.0 0.0 0.00 0.00 0.00 85 1013.4
20260502104200 11 281 0.0 0.0 0.00 0.00 0.00 85 1013.4
20260502104101 11 281 0.0 0.0 0.00 0.00 0.00 85 1013.4
20260502104000 11 281 0.0 0.0 0.00 0.00 0.00 85 1013.4
20260502103800 11 281 0.0 0.0 0.00 0.00 0.00 85 1013.3
20260502103701 11 281 0.0 0.0 0.00 0.00 0.00 85 1013.3
20260502103501 11 281 0.0 0.0 0.00 0.00 0.00 85 1013.3
20260502103400 11 281 0.0 0.0 0.00 0.00 0.00 85 1013.3
20260502103300 11 281 0.0 0.0 0.00 0.00 0.00 85 1013.3
20260502103200 11 281 0.0 0.0 0.00 0.00 0.00 85 1013.4
20260502103114 11 281 0.0 0.0 0.00 0.00 0.00 85 1013.2
20260502103101 11 281 0.0 0.0 0.00 0.00 0.00 85 1013.3
20260502103002 11 281 0.0 0.0 0.00 0.00 0.00 85 1013.4
20260502102900 11 281 0.0 0.0 0.00 0.00 0.00 85 1013.3
20260502102800 11 281 0.0 0.0 0.00 0.00 0.00 85 1013.3
20260502102702 11 281 0.0 0.0 0.00 0.00 0.00 85 1013.2
20260502102601 11 281 0.0 0.0 0.00 0.00 0.00 85 1013.2
20260502102501 11 281 0.0 0.0 0.00 0.00 0.00 85 1013.3
20260502102401 11 281 0.0 0.0 0.00 0.00 0.00 86 1013.3
20260502102300 11 281 0.0 0.0 0.00 0.00 0.00 86 1013.4
20260502102200 11 281 0.0 0.0 0.00 0.00 0.00 86 1013.4
20260502102100 11 281 0.0 0.0 0.00 0.00 0.00 86 1013.4
20260502101901 11 281 0.0 0.0 0.00 0.00 0.00 86 1013.4
20260502101800 11 281 0.0 0.0 0.00 0.00 0.00 86 1013.5
20260502101602 11 281 0.0 1.6 0.00 0.00 0.00 86 1013.5
20260502101501 11 281 0.0 1.6 0.00 0.00 0.00 86 1013.5
20260502101401 11 281 0.0 1.6 0.00 0.00 0.00 86 1013.5
20260502101300 11 281 0.0 1.6 0.00 0.00 0.00 86 1013.5
20260502101200 11 281 0.0 1.6 0.00 0.00 0.00 86 1013.4
20260502101102 11 281 0.0 1.6 0.00 0.00 0.00 86 1013.4
20260502101002 11 281 0.0 1.6 0.00 0.00 0.00 87 1013.5
20260502100900 11 266 0.0 1.6 0.00 0.00 0.00 87 1013.4
20260502100800 11 259 0.0 1.6 0.00 0.00 0.00 87 1013.4
20260502100700 11 256 0.0 0.0 0.00 0.00 0.00 87 1013.5
20260502100600 11 256 0.0 0.0 0.00 0.00 0.00 87 1013.6
20260502100402 11 256 0.0 0.0 0.00 0.00 0.00 87 1013.6
20260502100300 11 256 0.0 0.0 0.00 0.00 0.00 87 1013.6
20260502100201 11 257 0.0 0.0 0.00 0.00 0.00 87 1013.6
20260502100124 11 256 0.0 0.0 0.00 0.00 0.00 87 1013.6
20260502091504 10 255 0.0 0.0 0.00 0.00 0.00 89 1013.4
20260502091501 10 255 0.0 0.0 0.00 0.00 0.00 89 1013.4
20260502091300 10 255 0.0 0.0 0.00 0.00 0.00 89 1013.4
20260502091200 10 255 0.0 0.0 0.00 0.00 0.00 89 1013.3
20260502091100 10 254 0.0 0.0 0.00 0.00 0.00 89 1013.3
20260502091000 10 255 0.0 0.0 0.00 0.00 0.00 89 1013.3
20260502090900 10 255 0.0 0.0 0.00 0.00 0.00 89 1013.4
20260502090801 10 254 0.0 0.0 0.00 0.00 0.00 89 1013.4
20260502090700 10 255 0.0 0.0 0.00 0.00 0.00 89 1013.4
20260502090600 10 254 0.0 0.0 0.00 0.00 0.00 89 1013.2
20260502090500 10 255 0.0 0.0 0.00 0.00 0.00 89 1013.2
20260502090400 10 255 0.0 0.0 0.00 0.00 0.00 89 1013.3
20260502090200 10 254 0.0 0.0 0.00 0.00 0.00 89 1013.3
20260502090112 10 255 0.0 0.0 0.00 0.00 0.00 89 1013.3
20260502080105 10 255 0.0 0.0 0.00 0.00 0.00 88 1012.8
20260502071459 10 252 0.0 0.0 0.00 0.00 0.00 88 1012.6
20260502071359 10 252 0.0 0.0 0.00 0.00 0.00 88 1012.6
20260502071059 10 252 0.0 0.0 0.00 0.00 0.00 88 1012.7
20260502070959 10 252 0.0 0.0 0.00 0.00 0.00 88 1012.7
20260502070901 10 252 0.0 0.0 0.00 0.00 0.00 88 1012.8
20260502070759 10 252 0.0 0.0 0.00 0.00 0.00 88 1012.6
20260502070659 10 252 0.0 0.0 0.00 0.00 0.00 88 1012.6
20260502070559 10 252 0.0 0.0 0.00 0.00 0.00 88 1012.6
20260502070459 10 252 0.0 0.0 0.00 0.00 0.00 88 1012.7
20260502070300 10 252 0.0 0.0 0.00 0.00 0.00 88 1012.8
20260502070101 10 252 0.0 0.0 0.00 0.00 0.00 88 1012.8
20260502070002 10 252 0.0 0.0 0.00 0.00 0.00 88 1012.8
20260502065901 10 252 0.0 0.0 0.00 0.00 0.00 88 1012.8
20260502065800 10 252 0.0 0.0 0.00 0.00 0.00 88 1012.7
20260502065701 10 252 0.0 0.0 0.00 0.00 0.00 88 1012.7
20260502065459 10 250 0.0 0.0 0.00 0.00 0.00 88 1012.5
20260502065400 10 250 0.0 0.0 0.00 0.00 0.00 88 1012.5
20260502065300 10 250 0.0 0.0 0.00 0.00 0.00 88 1012.7
20260502065100 10 250 0.0 0.0 0.00 0.00 0.00 88 1012.7
20260502064959 10 250 0.0 0.0 0.00 0.00 0.00 88 1012.7
20260502064859 10 250 0.0 0.0 0.00 0.00 0.00 88 1012.8
20260502064801 10 250 0.0 0.0 0.00 0.00 0.00 88 1012.8
20260502064659 10 250 0.0 0.0 0.00 0.00 0.00 88 1012.8
20260502064609 10 250 0.0 0.0 0.00 0.00 0.00 88 1012.9
20260502064600 10 250 0.0 0.0 0.00 0.00 0.00 88 1013.0
20260502064503 10 250 0.0 0.0 0.00 0.00 0.00 88 1013.0
20260502064400 10 250 0.0 0.0 0.00 0.00 0.00 88 1012.8
20260502064300 10 250 0.0 0.0 0.00 0.00 0.00 88 1012.8
20260502064201 10 250 0.0 0.0 0.00 0.00 0.00 88 1012.8
20260502064100 10 250 0.0 0.0 0.00 0.00 0.00 88 1012.8
20260502064001 10 250 0.0 0.0 0.00 0.00 0.00 88 1012.8
20260502063901 10 250 0.0 0.0 0.00 0.00 0.00 88 1012.6
20260502063800 10 250 0.0 0.0 0.00 0.00 0.00 88 1012.7
20260502063701 10 250 0.0 0.0 0.00 0.00 0.00 88 1012.6
20260502063559 10 250 0.0 0.0 0.00 0.00 0.00 88 1012.6
20260502063500 10 250 0.0 1.6 0.00 0.00 0.00 88 1012.6
20260502063400 10 250 0.0 1.6 0.00 0.00 0.00 88 1012.7
20260502063159 10 250 0.0 1.6 0.00 0.00 0.00 88 1012.8
20260502063100 10 250 0.0 1.6 0.00 0.00 0.00 88 1012.8
20260502062900 10 250 0.0 1.6 0.00 0.00 0.00 88 1012.8
20260502062800 10 250 0.0 1.6 0.00 0.00 0.00 88 1012.8
20260502062700 10 250 0.0 0.0 0.00 0.00 0.00 88 1012.8
20260502062600 10 250 0.0 0.0 0.00 0.00 0.00 88 1012.7
20260502062501 10 250 0.0 0.0 0.00 0.00 0.00 88 1012.6
20260502062359 10 250 0.0 0.0 0.00 0.00 0.00 88 1012.6
20260502062259 10 250 0.0 0.0 0.00 0.00 0.00 88 1012.7
20260502062200 10 250 0.0 0.0 0.00 0.00 0.00 88 1012.6
20260502062101 10 250 0.0 0.0 0.00 0.00 0.00 88 1012.6
20260502062000 10 250 0.0 0.0 0.00 0.00 0.00 88 1012.5
20260502061800 10 250 0.0 0.0 0.00 0.00 0.00 88 1012.6
20260502061701 10 250 0.0 0.0 0.00 0.00 0.00 88 1012.7
20260502061600 10 250 0.0 0.0 0.00 0.00 0.00 88 1012.7
20260502061559 10 250 0.0 0.0 0.00 0.00 0.00 88 1012.7
20260502061500 10 250 0.0 0.0 0.00 0.00 0.00 88 1012.7
20260502061301 10 250 0.0 0.0 0.00 0.00 0.00 88 1012.6
20260502061101 10 249 0.0 0.0 0.00 0.00 0.00 88 1012.8
20260502061000 10 248 0.0 0.0 0.00 0.00 0.00 88 1012.8
20260502060900 10 249 0.0 0.0 0.00 0.00 0.00 88 1012.7
20260502060801 10 248 0.0 0.0 0.00 0.00 0.00 88 1012.7
20260502060600 10 248 0.0 0.0 0.00 0.00 0.00 88 1012.6
20260502060400 10 249 0.0 0.0 0.00 0.00 0.00 88 1012.6
20260502060259 10 248 0.0 0.0 0.00 0.00 0.00 88 1012.6
20260502060200 10 249 0.0 0.0 0.00 0.00 0.00 88 1012.6
20260502060100 10 248 0.0 0.0 0.00 0.00 0.00 88 1012.6
20260502060000 10 249 0.0 0.0 0.00 0.00 0.00 88 1012.7
20260502055859 10 249 0.0 0.0 0.00 0.00 0.00 88 1012.6
20260502055700 10 248 0.0 0.0 0.00 0.00 0.00 88 1012.5
20260502055601 10 248 0.0 0.0 0.00 0.00 0.00 88 1012.5
20260502055500 10 249 0.0 0.0 0.00 0.00 0.00 88 1012.6
20260502055300 10 249 0.0 0.0 0.00 0.00 0.00 88 1012.6
20260502055100 10 249 0.0 0.0 0.00 0.00 0.00 88 1012.6
20260502055001 10 248 0.0 0.0 0.00 0.00 0.00 88 1012.6
20260502054900 10 248 0.0 0.0 0.00 0.00 0.00 88 1012.8
20260502054700 10 249 0.0 0.0 0.00 0.00 0.00 88 1012.7
20260502054601 10 249 0.0 0.0 0.00 0.00 0.00 87 1012.9
20260502054300 10 248 0.0 0.0 0.00 0.00 0.00 87 1013.0
20260502054200 10 248 0.0 0.0 0.00 0.00 0.00 87 1013.0
20260502054100 10 248 0.0 0.0 0.00 0.00 0.00 88 1013.1
20260502054001 10 249 0.0 0.0 0.00 0.00 0.00 87 1013.1
20260502053901 10 249 0.0 0.0 0.00 0.00 0.00 87 1013.1
20260502053659 10 248 0.0 0.0 0.00 0.00 0.00 88 1013.1
20260502053600 10 248 0.0 0.0 0.00 0.00 0.00 88 1012.9
20260502053501 10 248 0.0 0.0 0.00 0.00 0.00 87 1012.9
20260502053300 10 248 0.0 0.0 0.00 0.00 0.00 87 1013.1
20260502053200 10 249 0.0 0.0 0.00 0.00 0.00 87 1013.1
20260502053101 10 249 0.0 0.0 0.00 0.00 0.00 87 1013.0
20260502053001 10 249 0.0 0.0 0.00 0.00 0.00 88 1013.1
20260502052902 10 249 0.0 0.0 0.00 0.00 0.00 88 1013.1
20260502052800 10 248 0.0 0.0 0.00 0.00 0.00 88 1013.0
20260502052659 10 249 0.0 0.0 0.00 0.00 0.00 87 1013.1
20260502052400 10 248 0.0 0.0 0.00 0.00 0.00 87 1013.0
20260502052000 10 248 0.0 0.0 0.00 0.00 0.00 87 1012.9
20260502051859 10 249 0.0 0.0 0.00 0.00 0.00 87 1012.8
20260502051800 10 248 0.0 0.0 0.00 0.00 0.00 87 1012.8
20260502051701 10 249 0.0 0.0 0.00 0.00 0.00 87 1012.9
20260502051659 10 248 0.0 0.0 0.00 0.00 0.00 87 1013.0
20260502051559 10 249 0.0 0.0 0.00 0.00 0.00 87 1012.9
20260502051402 10 248 0.0 0.0 0.00 0.00 0.00 87 1013.0
20260502051302 10 249 0.0 0.0 0.00 0.00 0.00 87 1012.8
20260502051100 10 249 0.0 0.0 0.00 0.00 0.00 87 1013.0
20260502051001 10 248 0.0 0.0 0.00 0.00 0.00 87 1013.0
20260502050859 10 248 0.0 0.0 0.00 0.00 0.00 87 1013.1
20260502050800 10 248 0.0 0.0 0.00 0.00 0.00 87 1013.1
20260502050702 10 249 0.0 0.0 0.00 0.00 0.00 87 1013.0
20260502050559 10 248 0.0 0.0 0.00 0.00 0.00 87 1013.1
20260502050501 10 248 0.0 0.0 0.00 0.00 0.00 87 1013.1
20260502050359 10 248 0.0 0.0 0.00 0.00 0.00 87 1013.1
20260502050259 10 248 0.0 0.0 0.00 0.00 0.00 87 1013.1
20260502050201 10 249 0.0 0.0 0.00 0.00 0.00 87 1013.1
20260502050101 10 249 0.0 0.0 0.00 0.00 0.00 87 1013.1
20260502050059 10 249 0.0 0.0 0.00 0.00 0.00 87 1013.1
20260502050000 10 248 0.0 0.0 0.00 0.00 0.00 87 1013.1
20260502045700 10 249 0.0 0.0 0.00 0.00 0.00 87 1013.1
20260502045559 10 248 0.0 0.0 0.00 0.00 0.00 87 1013.2
20260502045459 10 249 0.0 0.0 0.00 0.00 0.00 87 1013.1
20260502045400 10 249 0.0 0.0 0.00 0.00 0.00 87 1013.2
20260502045259 10 249 0.0 0.0 0.00 0.00 0.00 87 1013.2
20260502045159 10 249 0.0 0.0 0.00 0.00 0.00 87 1013.2
20260502045100 10 249 0.0 0.0 0.00 0.00 0.00 87 1013.2
20260502044959 10 249 0.0 0.0 0.00 0.00 0.00 87 1013.3
20260502044900 10 249 0.0 0.0 0.00 0.00 0.00 87 1013.3
20260502044758 10 249 0.0 0.0 0.00 0.00 0.00 87 1013.3
20260502044658 10 249 0.0 0.0 0.00 0.00 0.00 87 1013.4
20260502044608 10 249 0.0 0.0 0.00 0.00 0.00 87 1013.3
20260502044559 10 249 0.0 0.0 0.00 0.00 0.00 87 1013.3
20260502044500 10 249 0.0 0.0 0.00 0.00 0.00 87 1013.3
20260502044358 10 249 0.0 0.0 0.00 0.00 0.00 87 1013.4
20260502044300 10 248 0.0 0.0 0.00 0.00 0.00 87 1013.3
20260502044100 10 248 0.0 0.0 0.00 0.00 0.00 87 1013.4
20260502044000 10 249 0.0 0.0 0.00 0.00 0.00 87 1013.4
20260502043659 10 249 0.0 0.0 0.00 0.00 0.00 87 1013.4
20260502043559 10 248 0.0 0.0 0.00 0.00 0.00 87 1013.3
20260502043359 10 249 0.0 0.0 0.00 0.00 0.00 87 1013.3
20260502043259 10 249 0.0 0.0 0.00 0.00 0.00 87 1013.3
20260502043200 10 249 0.0 0.0 0.00 0.00 0.00 87 1013.4
20260502043109 10 249 0.0 0.0 0.00 0.00 0.00 87 1013.2
20260502042859 10 248 0.0 0.0 0.00 0.00 0.00 87 1013.4
20260502042758 10 249 0.0 0.0 0.00 0.00 0.00 87 1013.4
20260502042700 10 249 0.0 0.0 0.00 0.00 0.00 87 1013.3
20260502042559 10 248 0.0 0.0 0.00 0.00 0.00 87 1013.4
20260502042359 10 249 0.0 0.0 0.00 0.00 0.00 87 1013.3
20260502042159 10 249 0.0 0.0 0.00 0.00 0.00 87 1013.4
20260502042058 10 248 0.0 0.0 0.00 0.00 0.00 87 1013.3
20260502041959 10 249 0.0 0.0 0.00 0.00 0.00 87 1013.3
20260502041858 10 249 0.0 0.0 0.00 0.00 0.00 87 1013.3
20260502041758 10 248 0.0 0.0 0.00 0.00 0.00 87 1013.3
20260502041600 10 249 0.0 0.0 0.00 0.00 0.00 87 1013.2
20260502041500 10 249 0.0 0.0 0.00 0.00 0.00 87 1013.3
20260502041358 11 249 0.0 0.0 0.00 0.00 0.00 87 1013.4
20260502041300 11 249 0.0 0.0 0.00 0.00 0.00 87 1013.4
20260502041158 11 249 0.0 0.0 0.00 0.00 0.00 87 1013.5
20260502041100 11 249 0.0 0.0 0.00 0.00 0.00 87 1013.5
20260502040959 11 248 0.0 0.0 0.00 0.00 0.00 87 1013.5
20260502040900 11 249 0.0 0.0 0.00 0.00 0.00 87 1013.5
20260502040759 11 249 0.0 0.0 0.00 0.00 0.00 87 1013.3
20260502040700 11 248 0.0 0.0 0.00 0.00 0.00 87 1013.3
20260502040559 11 248 0.0 0.0 0.00 0.00 0.00 87 1013.4
20260502040458 11 249 0.0 0.0 0.00 0.00 0.00 87 1013.4
20260502040359 11 249 0.0 0.0 0.00 0.00 0.00 87 1013.5
20260502040259 11 248 0.0 0.0 0.00 0.00 0.00 87 1013.5
20260502040203 11 249 0.0 0.0 0.00 0.00 0.00 87 1013.5
20260502040003 11 248 0.0 0.0 0.00 0.00 0.00 87 1013.4
20260502035901 11 248 0.0 0.0 0.00 0.00 0.00 87 1013.5
20260502035801 11 249 0.0 0.0 0.00 0.00 0.00 86 1013.5
20260502035702 11 248 0.0 0.0 0.00 0.00 0.00 87 1013.6
20260502035603 11 249 0.0 0.0 0.00 0.00 0.00 86 1013.5
20260502035502 11 248 0.0 0.0 0.00 0.00 0.00 86 1013.6
20260502035402 11 248 0.0 0.0 0.00 0.00 0.00 86 1013.6
20260502035301 11 249 0.0 0.0 0.00 0.00 0.00 86 1013.6
20260502035202 11 248 0.0 0.0 0.00 0.00 0.00 86 1013.5
20260502035103 11 249 0.0 0.0 0.00 0.00 0.00 86 1013.6
20260502035001 11 248 0.0 0.0 0.00 0.00 0.00 86 1013.6
20260502034902 11 249 0.0 0.0 0.00 0.00 0.00 86 1013.6
20260502034802 11 248 0.0 0.0 0.00 0.00 0.00 86 1013.5
20260502034702 11 249 0.0 0.0 0.00 0.00 0.00 86 1013.6
20260502034602 11 249 0.0 0.0 0.00 0.00 0.00 86 1013.7
20260502034502 11 248 0.0 0.0 0.00 0.00 0.00 86 1013.6
20260502034402 11 249 0.0 0.0 0.00 0.00 0.00 86 1013.6
20260502034204 11 249 0.0 0.0 0.00 0.00 0.00 86 1013.6
20260502034102 11 248 0.0 0.0 0.00 0.00 0.00 86 1013.7
20260502034002 11 249 0.0 0.0 0.00 0.00 0.00 86 1013.6
20260502033903 11 248 0.0 0.0 0.00 0.00 0.00 86 1013.7
20260502033802 11 249 0.0 0.0 0.00 0.00 0.00 86 1013.7
20260502033701 11 249 0.0 0.0 0.00 0.00 0.00 86 1013.8
20260502033602 11 249 0.0 0.0 0.00 0.00 0.00 86 1013.6
20260502033502 11 249 0.0 0.0 0.00 0.00 0.00 86 1013.8
20260502033201 11 248 0.0 0.0 0.00 0.00 0.00 86 1013.6
20260502033103 11 249 0.0 0.0 0.00 0.00 0.00 86 1013.6
20260502033002 11 249 0.0 0.0 0.00 0.00 0.00 86 1013.6
20260502032902 11 249 0.0 0.0 0.00 0.00 0.00 86 1013.5
20260502032801 11 248 0.0 0.0 0.00 0.00 0.00 86 1013.5
20260502032703 11 249 0.0 0.0 0.00 0.00 0.00 86 1013.5
20260502032602 11 249 0.0 0.0 0.00 0.00 0.00 86 1013.6
20260502032502 11 249 0.0 0.0 0.00 0.00 0.00 86 1013.5
20260502032402 11 248 0.0 0.0 0.00 0.00 0.00 86 1013.6
20260502032305 11 248 0.0 0.0 0.00 0.00 0.00 86 1013.5
20260502032201 11 248 0.0 0.0 0.00 0.00 0.00 86 1013.5
20260502032103 11 248 0.0 0.0 0.00 0.00 0.00 86 1013.6
20260502032002 11 249 0.0 0.0 0.00 0.00 0.00 86 1013.5
20260502031902 11 249 0.0 0.0 0.00 0.00 0.00 86 1013.4
20260502031602 11 249 0.0 0.0 0.00 0.00 0.00 86 1013.5
20260502031501 11 249 0.0 0.0 0.00 0.00 0.00 86 1013.6
20260502031404 11 249 0.0 0.0 0.00 0.00 0.00 86 1013.6
20260502031302 11 249 0.0 0.0 0.00 0.00 0.00 86 1013.6
20260502031203 11 249 0.0 0.0 0.00 0.00 0.00 86 1013.5
20260502031101 11 249 0.0 0.0 0.00 0.00 0.00 86 1013.5
20260502031003 11 249 0.0 0.0 0.00 0.00 0.00 86 1013.6
20260502030902 11 249 0.0 0.0 0.00 0.00 0.00 86 1013.5
20260502030802 11 248 0.0 0.0 0.00 0.00 0.00 86 1013.5
20260502030702 11 248 0.0 0.0 0.00 0.00 0.00 85 1013.5
20260502030601 11 248 0.0 0.0 0.00 0.00 0.00 85 1013.5
20260502030503 11 249 0.0 0.0 0.00 0.00 0.00 85 1013.6
20260502030402 11 249 0.0 0.0 0.00 0.00 0.00 85 1013.6
20260502030302 11 249 0.0 0.0 0.00 0.00 0.00 85 1013.6
20260502030203 11 249 0.0 0.0 0.00 0.00 0.00 85 1013.6
20260502030002 11 248 0.0 0.0 0.00 0.00 0.00 85 1013.6
20260502025902 11 248 0.0 0.0 0.00 0.00 0.00 85 1013.6
20260502025802 11 249 0.0 0.0 0.00 0.00 0.00 85 1013.6
20260502025602 11 249 0.0 0.0 0.00 0.00 0.00 85 1013.5
20260502025502 11 249 0.0 0.0 0.00 0.00 0.00 85 1013.6
20260502025401 11 249 0.0 0.0 0.00 0.00 0.00 85 1013.6
20260502025306 11 249 0.0 0.0 0.00 0.00 0.00 85 1013.7
20260502025102 11 249 0.0 0.0 0.00 0.00 0.00 85 1013.5
20260502025001 11 248 0.0 0.0 0.00 0.00 0.00 85 1013.6
20260502024902 11 249 0.0 0.0 0.00 0.00 0.00 85 1013.6
20260502024802 11 249 0.0 0.0 0.00 0.00 0.00 85 1013.6
20260502024701 11 249 0.0 0.0 0.00 0.00 0.00 85 1013.7
20260502024601 11 249 0.0 0.0 0.00 0.00 0.00 85 1013.7
20260502024503 11 248 0.0 0.0 0.00 0.00 0.00 85 1013.7
20260502024403 11 249 0.0 0.0 0.00 0.00 0.00 85 1013.6
20260502024302 11 248 0.0 0.0 0.00 0.00 0.00 84 1013.6
20260502024202 11 248 0.0 0.0 0.00 0.00 0.00 84 1013.6
20260502024102 11 249 0.0 0.0 0.00 0.00 0.00 84 1013.6
20260502024002 11 249 0.0 0.0 0.00 0.00 0.00 84 1013.5
20260502023902 11 249 0.0 0.0 0.00 0.00 0.00 84 1013.5
20260502023802 11 249 0.0 0.0 0.00 0.00 0.00 84 1013.6
20260502023701 11 249 0.0 0.0 0.00 0.00 0.00 84 1013.7
20260502023601 11 249 0.0 0.0 0.00 0.00 0.00 84 1013.7
20260502023503 11 249 0.0 0.0 0.00 0.00 0.00 84 1013.6
20260502023402 11 249 0.0 0.0 0.00 0.00 0.00 84 1013.7
20260502023302 11 249 0.0 0.0 0.00 0.00 0.00 84 1013.6
20260502023204 11 248 0.0 0.0 0.00 0.00 0.00 84 1013.6
20260502023102 11 248 0.0 0.0 0.00 0.00 0.00 84 1013.7
20260502023002 11 248 0.0 0.0 0.00 0.00 0.00 84 1013.7
20260502022902 11 249 0.0 0.0 0.00 0.00 0.00 84 1013.7
20260502022702 11 249 0.0 0.0 0.00 0.00 0.00 84 1013.5
20260502022602 11 248 0.0 0.0 0.00 0.00 0.00 84 1013.6
20260502022502 11 249 0.0 0.0 0.00 0.00 0.00 84 1013.6
20260502022402 11 248 0.0 0.0 0.00 0.00 0.00 83 1013.6
20260502022306 11 248 0.0 0.0 0.00 0.00 0.00 83 1013.6
20260502022101 11 249 0.0 0.0 0.00 0.00 0.00 83 1013.8
20260502022001 11 249 0.0 0.0 0.00 0.00 0.00 83 1013.7
20260502021801 11 248 0.0 0.0 0.00 0.00 0.00 83 1013.9
20260502021702 11 249 0.0 0.0 0.00 0.00 0.00 83 1013.8
20260502021602 11 248 0.0 0.0 0.00 0.00 0.00 83 1013.8
20260502021503 11 248 0.0 0.0 0.00 0.00 0.00 83 1013.8
20260502021403 11 249 0.0 0.0 0.00 0.00 0.00 83 1013.7
20260502021203 11 249 0.0 0.0 0.00 0.00 0.00 83 1013.8
20260502021102 11 249 0.0 0.0 0.00 0.00 0.00 83 1013.7
20260502020902 11 249 0.0 0.0 0.00 0.00 0.00 83 1013.7
20260502020802 11 248 0.0 0.0 0.00 0.00 0.00 83 1013.7
20260502020701 11 249 0.0 0.0 0.00 0.00 0.00 83 1013.7
20260502020502 11 249 0.0 0.0 0.00 0.00 0.00 83 1013.7
20260502020404 11 248 0.0 0.0 0.00 0.00 0.00 83 1013.7
20260502020302 11 249 0.0 0.0 0.00 0.00 0.00 83 1013.7
20260502020004 11 248 0.0 0.0 0.00 0.00 0.00 82 1013.6
20260502015901 11 248 0.0 0.0 0.00 0.00 0.00 82 1013.7
20260502015801 11 249 0.0 0.0 0.00 0.00 0.00 82 1013.7
20260502015702 11 248 0.0 0.0 0.00 0.00 0.00 82 1013.7
20260502015502 11 249 0.0 1.6 0.00 0.00 0.00 82 1013.8
20260502015402 11 249 0.0 1.6 0.00 0.00 0.00 82 1013.8
20260502015203 11 248 0.0 1.6 0.00 0.00 0.00 82 1013.7
20260502015004 11 249 0.0 1.6 0.00 0.00 0.00 82 1013.7
20260502014901 12 249 0.0 1.6 0.00 0.00 0.00 81 1013.8
20260502014802 12 248 0.0 1.6 0.00 0.00 0.00 81 1013.8
20260502014603 12 246 0.0 0.0 0.00 0.00 0.00 81 1013.8
20260502014504 12 246 0.0 0.0 0.00 0.00 0.00 81 1013.7
20260502014502 12 246 0.0 0.0 0.00 0.00 0.00 81 1013.7
20260502014402 12 246 0.0 0.0 0.00 0.00 0.00 81 1013.7
20260502014302 12 245 0.0 0.0 0.00 0.00 0.00 81 1013.6
20260502014201 12 246 0.0 0.0 0.00 0.00 0.00 81 1013.6
20260502014103 12 246 0.0 0.0 0.00 0.00 0.00 81 1013.6
20260502014002 12 246 0.0 0.0 0.00 0.00 0.00 81 1013.5
20260502013901 12 246 0.0 0.0 0.00 0.00 0.00 81 1013.6
20260502013803 12 246 0.0 0.0 0.00 0.00 0.00 81 1013.6
20260502013701 12 246 0.0 0.0 0.00 0.00 0.00 80 1013.6
20260502013501 12 246 0.0 0.0 0.00 0.00 0.00 80 1013.6
20260502013401 12 246 0.0 0.0 0.00 0.00 0.00 80 1013.5
20260502013301 12 246 0.0 0.0 0.00 0.00 0.00 80 1013.6
20260502013202 12 246 0.0 0.0 0.00 0.00 0.00 80 1013.6
20260502013102 12 245 0.0 0.0 0.00 0.00 0.00 80 1013.6
20260502013002 12 246 0.0 0.0 0.00 0.00 0.00 80 1013.6
20260502012901 12 246 0.0 0.0 0.00 0.00 0.00 80 1013.7
20260502012801 12 246 0.0 0.0 0.00 0.00 0.00 80 1013.7
20260502012701 12 246 0.0 0.0 0.00 0.00 0.00 80 1013.6
20260502012502 12 246 0.0 0.0 0.00 0.00 0.00 80 1013.6
20260502012402 12 246 0.0 0.0 0.00 0.00 0.00 80 1013.7
20260502012306 12 246 0.0 0.0 0.00 0.00 0.00 80 1013.6
20260502012202 12 246 0.0 0.0 0.00 0.00 0.00 80 1013.6
20260502012102 12 246 0.0 0.0 0.00 0.00 0.00 80 1013.6
20260502012004 12 246 0.0 0.0 0.00 0.00 0.00 80 1013.8
20260502011802 12 246 0.0 0.0 0.00 0.00 0.00 80 1013.5
20260502011701 12 246 0.0 0.0 0.00 0.00 0.00 80 1013.5
20260502011603 12 246 0.0 0.0 0.00 0.00 0.00 79 1013.6
20260502011503 12 246 0.0 0.0 0.00 0.00 0.00 79 1013.5
20260502011401 12 246 0.0 0.0 0.00 0.00 0.00 79 1013.5
20260502011303 12 246 0.0 0.0 0.00 0.00 0.00 79 1013.6
20260502011201 12 246 0.0 0.0 0.00 0.00 0.00 79 1013.6
20260502011102 12 245 0.0 0.0 0.00 0.00 0.00 79 1013.6
20260502011001 12 246 0.0 0.0 0.00 0.00 0.00 79 1013.7
20260502010902 12 246 0.0 0.0 0.00 0.00 0.00 79 1013.7
20260502010802 12 246 0.0 0.0 0.00 0.00 0.00 79 1013.7
20260502010701 12 246 0.0 0.0 0.00 0.00 0.00 78 1013.5
20260502010602 12 245 0.0 0.0 0.00 0.00 0.00 79 1013.6
20260502010502 12 246 0.0 0.0 0.00 0.00 0.00 79 1013.5
20260502010403 12 246 0.0 0.0 0.00 0.00 0.00 79 1013.5
20260502010002 12 246 0.0 0.0 0.00 0.00 0.00 78 1013.3
20260502005902 12 245 0.0 0.0 0.00 0.00 0.00 78 1013.4
20260502005703 12 246 0.0 0.0 0.00 0.00 0.00 78 1013.3
20260502005602 12 246 0.0 0.0 0.00 0.00 0.00 78 1013.2
20260502005501 12 246 0.0 0.0 0.00 0.00 0.00 78 1013.3
20260502005402 12 246 0.0 0.0 0.00 0.00 0.00 78 1013.2
20260502005305 12 246 0.0 0.0 0.00 0.00 0.00 78 1013.2
20260502005202 12 246 0.0 0.0 0.00 0.00 0.00 78 1013.2
20260502005102 12 245 0.0 0.0 0.00 0.00 0.00 78 1013.1
20260502004903 12 246 0.0 0.0 0.00 0.00 0.00 78 1013.2
20260502004802 12 246 0.0 1.6 0.00 0.00 0.00 78 1013.2
20260502004701 12 246 0.0 1.6 0.00 0.00 0.00 78 1013.2
20260502004601 12 246 0.0 1.6 0.00 0.00 0.00 78 1013.2
20260502004504 12 246 0.0 1.6 0.00 0.00 0.00 78 1013.1
20260502004502 12 246 0.0 1.6 0.00 0.00 0.00 78 1013.1
20260502004402 12 246 0.0 1.6 0.00 0.00 0.00 78 1013.3
20260502004302 12 246 0.0 1.6 0.00 0.00 0.00 77 1013.4
20260502004201 12 246 0.0 1.6 0.00 0.00 0.00 77 1013.3
20260502004002 12 246 0.0 1.6 0.00 0.00 0.00 77 1013.3
20260502003803 12 248 0.0 0.0 0.00 0.00 0.00 77 1013.2
20260502003702 12 249 0.0 0.0 0.00 0.00 0.00 77 1013.2
20260502003602 12 248 0.0 0.0 0.00 0.00 0.00 78 1013.2
20260502003503 12 249 0.0 0.0 0.00 0.00 0.00 78 1013.1
20260502003403 12 249 0.0 0.0 0.00 0.00 0.00 77 1013.1
20260502003103 12 248 0.0 0.0 0.00 0.00 0.00 77 1013.1
20260502003004 12 249 0.0 0.0 0.00 0.00 0.00 77 1012.9
20260502002902 12 249 0.0 0.0 0.00 0.00 0.00 77 1013.0
20260502002702 12 249 0.0 0.0 0.00 0.00 0.00 77 1012.8
20260502002601 12 249 0.0 0.0 0.00 0.00 0.00 77 1012.9
20260502002503 12 249 0.0 0.0 0.00 0.00 0.00 76 1012.9
20260502002403 13 248 0.0 0.0 0.00 0.00 0.00 76 1012.9
20260502002305 13 249 0.0 0.0 0.00 0.00 0.00 76 1012.8
20260502002202 13 249 0.0 0.0 0.00 0.00 0.00 76 1012.7
20260502002003 13 249 0.0 0.0 0.00 0.00 0.00 76 1012.7
20260502001902 13 249 0.0 0.0 0.00 0.00 0.00 76 1012.7
20260502001802 13 249 0.0 0.0 0.00 0.00 0.00 76 1012.7
20260502001702 13 248 0.0 0.0 0.00 0.00 0.00 76 1012.6
20260502001602 13 249 0.0 0.0 0.00 0.00 0.00 76 1012.7
20260502001503 13 248 0.0 0.0 0.00 0.00 0.00 76 1012.6
20260502001303 13 249 0.0 0.0 0.00 0.00 0.00 76 1012.6
20260502001201 13 248 0.0 0.0 0.00 0.00 0.00 76 1012.7
20260502001102 13 249 0.0 0.0 0.00 0.00 0.00 75 1012.7
20260502001002 13 248 0.0 0.0 0.00 0.00 0.00 76 1012.7
20260502000901 13 248 0.0 0.0 0.00 0.00 0.00 75 1012.7
20260502000801 13 248 0.0 1.6 0.00 0.00 0.00 75 1012.7
20260502000603 13 249 0.0 1.6 0.00 0.00 0.00 75 1012.6
20260502000501 13 248 0.0 1.6 0.00 0.00 0.00 75 1012.7
20260502000302 13 249 0.0 1.6 0.00 0.00 0.00 75 1012.7
20260502000203 13 249 0.0 1.6 0.00 0.00 0.00 75 1012.8
20260502000003 13 249 0.0 1.6 0.00 0.00 0.00 75 1012.7
20260501235901 13 248 0.0 0.0 0.00 0.00 0.00 74 1012.8
20260501235802 13 248 0.0 0.0 0.00 0.00 0.00 74 1012.7
20260501235702 13 248 0.0 0.0 0.00 0.00 0.00 74 1012.7
20260501235601 13 248 0.0 0.0 0.00 0.00 0.00 74 1012.7
20260501235502 13 248 0.0 0.0 0.00 0.00 0.00 74 1012.6
20260501235401 13 248 0.0 0.0 0.00 0.00 0.00 74 1012.7
20260501235203 13 248 0.0 0.0 0.00 0.00 0.00 74 1012.7
20260501235002 13 248 0.0 0.0 0.00 0.00 0.00 74 1012.7
20260501234801 13 248 0.0 0.0 0.00 0.00 0.00 74 1012.8
20260501234701 13 248 0.0 0.0 0.00 0.00 0.00 74 1012.7
20260501234601 14 248 0.0 1.6 0.00 0.00 0.00 74 1012.7
20260501234503 14 249 0.0 1.6 0.00 0.00 0.00 74 1012.8
20260501234402 14 250 0.0 1.6 0.00 0.00 0.00 74 1012.9
20260501234301 14 248 0.0 1.6 0.00 0.00 0.00 73 1012.9
20260501234202 14 248 0.0 1.6 0.00 0.00 0.00 73 1012.8
20260501234101 14 248 0.0 1.6 0.00 0.00 0.00 73 1012.8
20260501233901 14 248 0.0 3.2 0.00 0.00 0.00 73 1012.8
20260501233801 14 246 0.0 3.2 0.00 0.00 0.00 73 1012.7
20260501233702 14 219 0.0 3.2 0.00 0.00 0.00 73 1012.7
20260501233601 14 260 0.0 3.2 0.00 0.00 0.00 73 1012.8
20260501233501 14 260 0.0 3.2 0.00 0.00 0.00 73 1012.8
20260501233402 14 260 0.0 3.2 0.00 0.00 0.00 72 1012.8
20260501233303 14 259 0.0 3.2 0.00 0.00 0.00 72 1012.9
20260501233202 14 256 0.0 3.2 0.00 0.00 0.00 72 1012.8
20260501233102 15 253 0.0 3.2 0.00 0.00 0.00 72 1012.8
20260501233002 15 253 0.0 3.2 0.00 0.00 0.00 72 1012.7
20260501232902 15 253 0.0 3.2 0.00 0.00 0.00 71 1012.8
20260501232801 15 241 0.0 3.2 0.00 0.00 0.00 71 1012.7
20260501232701 15 255 0.0 3.2 0.00 0.00 0.00 71 1012.8
20260501232602 15 252 0.0 3.2 0.00 0.00 0.00 70 1012.7
20260501232503 15 255 0.0 3.2 0.00 0.00 0.00 70 1012.7
20260501232404 15 252 0.0 1.6 0.00 0.00 0.00 70 1012.6
20260501232201 15 257 0.0 1.6 0.00 0.00 0.00 70 1012.7
20260501232001 15 135 0.0 1.6 0.00 0.00 0.00 70 1012.7
20260501231902 15 135 0.0 1.6 0.00 0.00 0.00 70 1012.7
20260501231702 15 135 0.0 1.6 0.00 0.00 0.00 70 1012.8
20260501231603 15 135 0.0 1.6 0.00 0.00 0.00 70 1012.7
20260501231503 15 136 0.0 1.6 0.00 0.00 0.00 70 1012.6
20260501231402 15 137 0.0 1.6 0.00 0.00 0.00 70 1012.7
20260501231303 15 134 0.0 1.6 0.00 0.00 0.00 70 1012.7
20260501231101 15 134 0.0 1.6 0.00 0.00 0.00 69 1012.7
20260501231001 15 134 0.0 1.6 0.00 0.00 0.00 69 1012.7
20260501230904 15 117 0.0 1.6 0.00 0.00 0.00 69 1012.7
20260501230803 15 117 0.0 1.6 0.00 0.00 0.00 69 1012.8
20260501230702 15 117 0.0 1.6 0.00 0.00 0.00 68 1012.8
20260501230602 15 117 0.0 1.6 0.00 0.00 0.00 69 1012.8
20260501230502 15 112 0.0 1.6 0.00 0.00 0.00 68 1012.8
20260501230403 15 94 0.0 1.6 0.00 0.00 0.00 68 1012.8
20260501230301 15 92 0.0 1.6 0.00 0.00 0.00 68 1012.8
20260501230203 15 91 0.0 1.6 0.00 0.00 0.00 68 1012.8
20260501230003 16 94 0.0 1.6 0.00 0.00 0.00 68 1012.6
20260501225902 16 94 0.0 1.6 0.00 0.00 0.00 68 1012.7
20260501225803 16 151 0.0 1.6 0.00 0.00 0.00 68 1012.7
20260501225701 16 151 0.0 1.6 0.00 0.00 0.00 67 1012.8
20260501225601 16 112 0.0 1.6 0.00 0.00 0.00 67 1012.8
20260501225402 16 110 0.0 1.6 0.00 0.00 0.00 67 1012.8
20260501225305 16 110 0.0 1.6 0.00 0.00 0.00 66 1012.8
20260501225201 16 110 0.0 1.6 0.00 0.00 0.00 66 1012.8
20260501225101 16 112 0.0 1.6 0.00 0.00 0.00 66 1012.8
20260501225002 16 111 0.0 1.6 0.00 0.00 0.00 66 1012.8
20260501224802 16 127 0.0 1.6 0.00 0.00 0.00 66 1012.7
20260501224702 16 110 0.0 1.6 0.00 0.00 0.00 65 1012.8
20260501224602 16 108 0.0 1.6 0.00 0.00 0.00 65 1012.7
20260501224502 16 109 0.0 1.6 0.00 0.00 0.00 65 1012.8
20260501224402 16 115 0.0 1.6 0.00 0.00 0.00 65 1012.7
20260501224302 16 113 0.0 1.6 0.00 0.00 0.00 65 1012.7
20260501224203 16 113 0.0 1.6 0.00 0.00 0.00 65 1012.7
20260501224103 16 127 0.0 3.2 0.00 0.00 0.00 64 1012.7
20260501224002 16 104 0.0 3.2 0.00 0.00 0.00 64 1012.7
20260501223903 16 103 0.0 3.2 0.00 0.00 0.00 64 1012.7
20260501223801 16 77 0.0 3.2 0.00 0.00 0.00 64 1012.8
20260501223602 16 138 0.0 3.2 0.00 0.00 0.00 63 1012.9
20260501223502 17 135 0.0 3.2 0.00 0.00 0.00 63 1013.0
20260501223402 17 143 0.0 3.2 0.00 0.00 0.00 62 1013.0
20260501223301 17 248 0.0 3.2 0.00 0.00 0.00 62 1012.9
20260501223203 17 224 0.0 3.2 0.00 0.00 0.00 62 1013.0
20260501223101 17 194 0.0 3.2 0.00 0.00 0.00 62 1012.9
20260501223002 17 221 0.0 3.2 0.00 0.00 0.00 61 1013.0
20260501222901 17 224 0.0 3.2 0.00 0.00 0.00 60 1012.9
20260501222801 17 203 0.0 3.2 0.00 0.00 0.00 60 1013.0
20260501222602 17 262 0.0 3.2 0.00 0.00 0.00 60 1013.0
20260501222502 17 152 0.0 1.6 0.00 0.00 0.00 59 1013.0
20260501222401 17 143 0.0 1.6 0.00 0.00 0.00 59 1013.0
20260501222305 17 143 0.0 1.6 0.00 0.00 0.00 59 1013.0
20260501222201 18 143 0.0 4.8 0.00 0.00 0.00 59 1013.1
20260501222002 18 148 0.0 4.8 0.00 0.00 0.00 59 1012.9
20260501221901 17 88 0.0 4.8 0.00 0.00 0.00 60 1013.1
20260501221802 17 98 0.0 4.8 0.00 0.00 0.00 60 1013.0
20260501221702 17 94 0.0 4.8 0.00 0.00 0.00 60 1013.1
20260501221602 17 135 0.0 4.8 0.00 0.00 0.00 60 1013.1
20260501221503 17 246 0.0 4.8 0.00 0.00 0.00 59 1013.0
20260501221301 18 278 0.0 6.4 0.00 0.00 0.00 58 1013.1
20260501221202 18 260 0.0 6.4 0.00 0.00 0.00 59 1013.0
20260501221103 18 256 0.0 6.4 0.00 0.00 0.00 60 1012.9
20260501221002 18 239 0.0 6.4 0.00 0.00 0.00 59 1013.0
20260501220901 18 238 0.0 6.4 0.00 0.00 0.00 58 1013.0
20260501220801 18 252 0.0 6.4 0.00 0.00 0.00 59 1013.0
20260501220601 18 136 0.0 6.4 0.00 0.00 0.00 60 1013.0
20260501220502 18 135 0.0 6.4 0.00 0.00 0.00 58 1013.0
20260501220403 18 253 0.0 3.2 0.00 0.00 0.00 58 1013.0
20260501220000 18 158 0.0 3.2 0.00 0.00 0.00 58 1013.1
20260501215800 18 120 0.0 3.2 0.00 0.00 0.00 60 1013.0
20260501215702 18 127 0.0 3.2 0.00 0.00 0.00 60 1013.1
20260501215602 18 153 0.0 3.2 0.00 0.00 0.00 60 1013.0
20260501215500 18 150 0.0 3.2 0.00 0.00 0.00 59 1013.1
20260501215403 18 152 0.0 3.2 0.00 0.00 0.00 59 1013.1
20260501215301 18 249 0.0 3.2 0.00 0.00 0.00 59 1013.1
20260501215201 18 153 0.0 3.2 0.00 0.00 0.00 58 1013.2
20260501215100 18 153 0.0 3.2 0.00 0.00 0.00 58 1013.2
20260501215000 18 158 0.0 3.2 0.00 0.00 0.00 58 1013.1
20260501214900 18 147 0.0 3.2 0.00 0.00 0.00 58 1013.1
20260501214701 18 129 0.0 1.6 0.00 0.00 0.00 59 1013.2
20260501214612 18 148 0.0 3.2 0.00 0.00 0.00 59 1013.0
20260501214600 18 148 0.0 3.2 0.00 0.00 0.00 59 1013.1
20260501214500 18 147 0.0 3.2 0.00 0.00 0.00 59 1013.2
20260501214400 18 153 0.0 3.2 0.00 0.00 0.00 59 1013.2
20260501214301 18 153 0.0 3.2 0.00 0.00 0.00 59 1013.2
20260501214201 18 139 0.0 3.2 0.00 0.00 0.00 59 1013.2
20260501214101 18 139 0.0 3.2 0.00 0.00 0.00 59 1013.3
20260501213901 18 11 0.0 3.2 0.00 0.00 0.00 58 1013.2
20260501213801 17 157 0.0 1.6 0.00 0.00 0.00 58 1013.2
20260501213701 17 130 0.0 1.6 0.00 0.00 0.00 59 1013.2
20260501213601 17 143 0.0 1.6 0.00 0.00 0.00 59 1013.2
20260501213500 17 139 0.0 1.6 0.00 0.00 0.00 60 1013.2
20260501213400 17 128 0.0 1.6 0.00 0.00 0.00 61 1013.3
20260501213301 17 130 0.0 3.2 0.00 0.00 0.00 61 1013.3
20260501213201 17 146 0.0 3.2 0.00 0.00 0.00 61 1013.1
20260501213105 17 151 0.0 3.2 0.00 0.00 0.00 60 1013.1
20260501213100 17 151 0.0 3.2 0.00 0.00 0.00 60 1013.2
20260501213000 17 143 0.0 3.2 0.00 0.00 0.00 60 1013.3
20260501212900 17 143 1.6 3.2 0.00 0.00 0.00 61 1013.2
20260501212800 17 149 1.6 3.2 0.00 0.00 0.00 61 1013.3
20260501212701 17 134 1.6 6.4 0.00 0.00 0.00 60 1013.2
20260501212601 17 155 1.6 6.4 0.00 0.00 0.00 59 1013.2
20260501212501 17 44 1.6 6.4 0.00 0.00 0.00 60 1013.3
20260501212400 17 114 1.6 6.4 0.00 0.00 0.00 61 1013.3
20260501212300 17 322 1.6 6.4 0.00 0.00 0.00 62 1013.3
20260501212200 17 257 1.6 6.4 0.00 0.00 0.00 61 1013.3
20260501212102 17 270 1.6 6.4 0.00 0.00 0.00 61 1013.3
20260501212000 17 148 1.6 6.4 0.00 0.00 0.00 61 1013.3
20260501211901 17 245 1.6 6.4 0.00 0.00 0.00 61 1013.2
20260501211801 16 259 1.6 4.8 0.00 0.00 0.00 61 1013.3
20260501211701 16 238 1.6 4.8 0.00 0.00 0.00 61 1013.3
20260501211602 17 237 0.0 4.8 0.00 0.00 0.00 61 1013.3
20260501211500 17 249 0.0 3.2 0.00 0.00 0.00 60 1013.4
20260501211400 17 75 0.0 3.2 0.00 0.00 0.00 60 1013.3
20260501211201 17 87 0.0 3.2 0.00 0.00 0.00 61 1013.3
20260501211100 17 99 0.0 3.2 0.00 0.00 0.00 61 1013.3
20260501211000 17 110 0.0 3.2 0.00 0.00 0.00 60 1013.3
20260501210901 17 101 0.0 3.2 0.00 0.00 0.00 61 1013.3
20260501210800 17 100 0.0 3.2 0.00 0.00 0.00 63 1013.4
20260501210701 17 143 0.0 3.2 0.00 0.00 0.00 63 1013.3
20260501210600 17 142 0.0 3.2 0.00 0.00 0.00 62 1013.3
20260501210500 17 142 0.0 3.2 0.00 0.00 0.00 62 1013.3
20260501210402 17 141 0.0 3.2 0.00 0.00 0.00 61 1013.4
20260501210300 17 134 0.0 3.2 0.00 0.00 0.00 60 1013.2
20260501210201 17 148 0.0 3.2 0.00 0.00 0.00 61 1013.3
20260501210100 17 130 1.6 3.2 0.00 0.00 0.00 61 1013.3
20260501210003 17 129 0.0 4.8 0.00 0.00 0.00 62 1013.2
20260501205902 17 217 1.6 4.8 0.00 0.00 0.00 62 1013.4
20260501205803 17 249 1.6 4.8 0.00 0.00 0.00 62 1013.4
20260501205603 17 153 0.0 4.8 0.00 0.00 0.00 60 1013.3
20260501205504 17 236 0.0 4.8 0.00 0.00 0.00 60 1013.3
20260501205306 17 326 1.6 4.8 0.00 0.00 0.00 59 1013.3
20260501205203 17 329 1.6 4.8 0.00 0.00 0.00 59 1013.3
20260501205101 17 257 0.0 6.4 0.00 0.00 0.00 59 1013.2
20260501205003 17 252 1.6 6.4 0.00 0.00 0.00 59 1013.3
20260501204901 17 249 1.6 6.4 0.00 0.00 0.00 59 1013.2
20260501204803 17 153 1.6 8.0 0.00 0.00 0.00 60 1013.2
20260501204702 17 61 1.6 8.0 0.00 0.00 0.00 60 1013.5
20260501204602 17 252 1.6 8.0 0.00 0.00 0.00 59 1013.4
20260501204503 17 148 1.6 8.0 0.00 0.00 0.00 59 1013.2
20260501204401 17 277 0.0 8.0 0.00 0.00 0.00 57 1013.2
20260501204302 17 248 0.0 8.0 0.00 0.00 0.00 57 1013.2
20260501204202 18 225 0.0 8.0 0.00 0.00 0.00 57 1013.3
20260501204103 18 136 1.6 8.0 0.00 0.00 0.00 56 1013.2
20260501204003 18 242 1.6 8.0 0.00 0.00 0.00 55 1013.2
20260501203903 18 152 1.6 3.2 0.00 0.00 0.00 54 1013.2
20260501203801 18 242 1.6 6.4 0.00 0.00 0.00 54 1013.2
20260501203703 18 233 1.6 6.4 0.00 0.00 0.00 55 1013.2
20260501203602 18 150 1.6 6.4 0.00 0.00 0.00 54 1013.3
20260501203402 18 236 1.6 6.4 0.00 0.00 0.00 53 1013.3
20260501203301 18 246 1.6 6.4 0.00 0.00 0.00 53 1013.3
20260501203202 18 255 1.6 6.4 0.00 0.00 0.00 52 1013.3
20260501203004 18 271 1.6 8.0 0.00 0.00 0.00 52 1013.3
20260501203002 18 271 1.6 8.0 0.00 0.00 0.00 52 1013.2
20260501202802 18 143 1.6 4.8 0.00 0.00 0.00 52 1013.2
20260501202701 18 148 0.0 4.8 0.00 0.00 0.00 52 1013.2
20260501202602 18 243 0.0 4.8 0.00 0.00 0.00 52 1013.3
20260501202503 18 233 0.0 4.8 0.00 0.00 0.00 51 1013.3
20260501202401 18 205 0.0 4.8 0.00 0.00 0.00 52 1013.3
20260501202301 18 249 0.0 6.4 0.00 0.00 0.00 51 1013.3
20260501202201 18 242 0.0 6.4 0.00 0.00 0.00 52 1013.3
20260501202001 18 224 0.0 1.6 0.00 0.00 0.00 52 1013.3
20260501201902 18 255 0.0 1.6 0.00 0.00 0.00 52 1013.2
20260501201702 18 130 0.0 1.6 0.00 0.00 0.00 52 1013.2
20260501201604 18 129 0.0 1.6 0.00 0.00 0.00 52 1013.2
20260501201502 18 145 0.0 1.6 0.00 0.00 0.00 52 1013.4
20260501201401 18 231 0.0 4.8 0.00 0.00 0.00 51 1013.4
20260501201301 18 233 0.0 4.8 0.00 0.00 0.00 52 1013.4
20260501201202 18 243 0.0 4.8 0.00 0.00 0.00 52 1013.4
20260501201101 18 100 0.0 4.8 0.00 0.00 0.00 52 1013.4
20260501200903 18 222 0.0 4.8 0.00 0.00 0.00 51 1013.3
20260501200801 18 284 0.0 4.8 0.00 0.00 0.00 51 1013.5
20260501200701 18 281 0.0 4.8 0.00 0.00 0.00 51 1013.4
20260501200603 18 264 0.0 4.8 0.00 0.00 0.00 50 1013.4
20260501200502 18 294 0.0 1.6 0.00 0.00 0.00 49 1013.5
20260501200401 18 186 0.0 1.6 0.00 0.00 0.00 51 1013.6
20260501200302 18 134 0.0 1.6 0.00 0.00 0.00 50 1013.5
20260501200201 18 137 0.0 1.6 0.00 0.00 0.00 51 1013.5
20260501200004 18 248 0.0 1.6 0.00 0.00 0.00 50 1013.6
20260501200001 18 248 0.0 1.6 0.00 0.00 0.00 50 1013.7
20260501195900 18 248 0.0 1.6 0.00 0.00 0.00 50 1013.7
20260501195802 18 224 0.0 1.6 0.00 0.00 0.00 51 1013.7
20260501195700 18 242 0.0 1.6 0.00 0.00 0.00 50 1013.8
20260501195600 18 243 0.0 3.2 0.00 0.00 0.00 50 1013.8
20260501195500 18 161 0.0 3.2 0.00 0.00 0.00 49 1013.8
20260501195301 19 249 0.0 3.2 0.00 0.00 0.00 48 1013.8
20260501195201 19 150 0.0 3.2 0.00 0.00 0.00 48 1013.8
20260501195100 19 151 0.0 3.2 0.00 0.00 0.00 48 1013.7
20260501195000 19 143 0.0 3.2 0.00 0.00 0.00 49 1013.8
20260501194901 19 155 0.0 3.2 0.00 0.00 0.00 50 1013.7
20260501194700 18 99 0.0 3.2 0.00 0.00 0.00 50 1013.6
20260501194604 18 101 0.0 4.8 0.00 0.00 0.00 49 1013.7
20260501194601 18 101 1.6 4.8 0.00 0.00 0.00 49 1013.8
20260501194501 18 127 0.0 4.8 0.00 0.00 0.00 49 1013.7
20260501194401 18 147 1.6 4.8 0.00 0.00 0.00 48 1013.8
20260501194302 18 85 1.6 4.8 0.00 0.00 0.00 48 1013.9
20260501194102 18 207 1.6 4.8 0.00 0.00 0.00 49 1013.8
20260501193900 18 236 1.6 4.8 0.00 0.00 0.00 50 1014.0
20260501193601 18 113 0.0 3.2 0.00 0.00 0.00 51 1013.9
20260501193500 18 150 0.0 3.2 0.00 0.00 0.00 50 1014.0
20260501193400 18 156 0.0 3.2 0.00 0.00 0.00 51 1014.0
20260501193301 18 249 0.0 3.2 0.00 0.00 0.00 51 1014.0
20260501193101 18 158 0.0 3.2 0.00 0.00 0.00 51 1014.0
20260501193002 18 207 0.0 3.2 0.00 0.00 0.00 51 1014.0
20260501192900 18 276 0.0 3.2 0.00 0.00 0.00 50 1014.0
20260501192700 18 280 0.0 4.8 0.00 0.00 0.00 49 1014.1
20260501192500 18 295 1.6 4.8 0.00 0.00 0.00 49 1014.1
20260501192401 18 262 1.6 4.8 0.00 0.00 0.00 49 1014.1
20260501192100 18 93 1.6 8.0 0.00 0.00 0.00 49 1014.0
20260501192000 18 282 1.6 8.0 0.00 0.00 0.00 48 1014.1
20260501191901 18 285 1.6 8.0 0.00 0.00 0.00 49 1014.1
20260501191800 18 129 3.2 8.0 0.00 0.00 0.00 49 1014.1
20260501191701 18 247 3.2 8.0 0.00 0.00 0.00 48 1014.0
20260501191606 18 249 1.6 8.0 0.00 0.00 0.00 48 1014.1
20260501191600 18 249 3.2 8.0 0.00 0.00 0.00 48 1014.1
20260501191501 18 249 3.2 8.0 0.00 0.00 0.00 49 1014.0
20260501191401 18 254 1.6 6.4 0.00 0.00 0.00 48 1014.1
20260501191301 18 241 1.6 8.0 0.00 0.00 0.00 49 1014.1
20260501191200 18 139 1.6 6.4 0.00 0.00 0.00 50 1014.1
20260501191059 18 89 1.6 6.4 0.00 0.00 0.00 49 1014.1
20260501191000 18 269 1.6 6.4 0.00 0.00 0.00 48 1014.1
20260501190902 18 286 1.6 6.4 0.00 0.00 0.00 48 1014.1
20260501190801 18 246 1.6 6.4 0.00 0.00 0.00 49 1014.1
20260501190702 18 243 1.6 6.4 0.00 0.00 0.00 49 1014.1
20260501190502 18 246 1.6 6.4 0.00 0.00 0.00 49 1014.1
20260501190400 18 243 1.6 6.4 0.00 0.00 0.00 47 1014.2
20260501190300 18 310 1.6 6.4 0.00 0.00 0.00 47 1014.2
20260501190200 18 316 1.6 6.4 0.00 0.00 0.00 47 1014.2
20260501190129 18 315 0.0 6.4 0.00 0.00 0.00 46 1014.1
20260501190101 18 315 1.6 6.4 0.00 0.00 0.00 46 1014.2
20260501190001 18 251 0.0 6.4 0.00 0.00 0.00 48 1014.3
20260501185900 18 251 1.6 6.4 0.00 0.00 0.00 46 1014.3
20260501185800 18 242 1.6 6.4 0.00 0.00 0.00 46 1014.3
20260501185700 18 242 1.6 6.4 0.00 0.00 0.00 46 1014.3
20260501185600 18 259 1.6 6.4 0.00 0.00 0.00 47 1014.3
20260501185501 18 85 1.6 6.4 0.00 0.00 0.00 47 1014.4
20260501185400 18 72 1.6 6.4 0.00 0.00 0.00 47 1014.3
20260501185300 18 102 1.6 6.4 0.00 0.00 0.00 47 1014.3
20260501185201 18 246 1.6 6.4 0.00 0.00 0.00 47 1014.3
20260501185100 18 246 1.6 6.4 0.00 0.00 0.00 46 1014.4
20260501185000 18 255 1.6 6.4 0.00 0.00 0.00 46 1014.3
20260501184802 18 233 1.6 8.0 0.00 0.00 0.00 49 1014.3
20260501184701 18 160 1.6 8.0 0.00 0.00 0.00 50 1014.3
20260501184601 18 148 0.0 8.0 0.00 0.00 0.00 49 1014.2
20260501184501 18 149 1.6 8.0 0.00 0.00 0.00 49 1014.3
20260501184402 18 150 1.6 8.0 0.00 0.00 0.00 48 1014.4
20260501184301 18 225 1.6 8.0 0.00 0.00 0.00 47 1014.4
20260501184200 18 225 1.6 8.0 0.00 0.00 0.00 47 1014.3
20260501184101 18 238 1.6 8.0 0.00 0.00 0.00 46 1014.4
20260501184001 18 231 1.6 9.7 0.00 0.00 0.00 46 1014.4
20260501183901 18 243 1.6 8.0 0.00 0.00 0.00 47 1014.5
20260501183800 18 243 0.0 4.8 0.00 0.00 0.00 47 1014.5
20260501183701 18 173 0.0 3.2 0.00 0.00 0.00 47 1014.6
20260501183600 18 176 0.0 3.2 0.00 0.00 0.00 47 1014.6